When you browse on this site, cookies collect data to enhance your experience and personalize the content and advertising you see.
Visit our Privacy Policy to learn more. By continuing to use the site, you agree to this use of cookies and data.
  • In United Kingdom
  • List of Countries
  • For 7 days
  • Water Temperature
  • Satellite Maps
  • Weather Map
  • Weather Widgets
  • user-avatar
    Login

    Hourly Weather Naiham

    Today, 26 April, Friday

    Time Temperature Precipitation Wind Pressure Humidity
    00:00 +24°C° 0 mm 0 mps 705 mmHg 86%
    01:00 +23°C° 0 mm 0 mps 704 mmHg 87%
    02:00 +23°C° 0 mm 0 mps 704 mmHg 87%
    03:00 +23°C° 0 mm 0 mps 704 mmHg 87%
    04:00 +22°C° 0 mm 0 mps 704 mmHg 86%
    05:00 +23°C° 0 mm 0 mps 704 mmHg 83%
    06:00 +24°C° 0 mm 0 mps 705 mmHg 80%
    07:00 +25°C° 0 mm 0 mps 705 mmHg 77%
    08:00 +28°C° 0 mm 0 mps 706 mmHg 65%
    09:00 +31°C° 0 mm 0 mps 706 mmHg 53%
    10:00 +37°C° 0 mm 1 mps 707 mmHg 41%
    11:00 +37°C° 0 mm 1 mps 706 mmHg 37%
    12:00 +39°C° 0 mm 1 mps 706 mmHg 33%
    13:00 +40°C° 0 mm 1 mps 706 mmHg 29%
    14:00 +37°C° 0 mm 1 mps 705 mmHg 34%
    15:00 +36°C° 0 mm 1 mps 704 mmHg 39%
    16:00 +35°C° 0 mm 1 mps 704 mmHg 44%
    17:00 +32°C° 0.9 mm 1 mps 703 mmHg 56%
    18:00 +30°C° 0.9 mm 1 mps 703 mmHg 67%
    19:00 +28°C° 0.9 mm 1 mps 703 mmHg 79%
    20:00 +27°C° 0.1 mm 1 mps 704 mmHg 83%
    21:00 +26°C° 0.1 mm 1 mps 705 mmHg 88%
    22:00 +26°C° 0.1 mm 1 mps 705 mmHg 92%
    23:00 +25°C° 0.1 mm 1 mps 705 mmHg 94%

    Tomorrow, 27 April, Saturday

    Time Temperature Precipitation Wind Pressure Humidity
    00:00 +23°C° 0.1 mm 0 mps 705 mmHg 95%
    01:00 +23°C° 0.1 mm 0 mps 706 mmHg 96%
    02:00 +22°C° 0 mm 0 mps 705 mmHg 96%
    03:00 +22°C° 0 mm 0 mps 705 mmHg 96%
    04:00 +22°C° 0 mm 0 mps 704 mmHg 96%
    05:00 +23°C° 0 mm 0 mps 705 mmHg 92%
    06:00 +23°C° 0 mm 0 mps 705 mmHg 88%
    07:00 +24°C° 0 mm 0 mps 706 mmHg 84%
    08:00 +27°C° 0 mm 0 mps 706 mmHg 71%
    09:00 +32°C° 0 mm 1 mps 707 mmHg 58%
    10:00 +35°C° 0 mm 1 mps 707 mmHg 44%
    11:00 +36°C° 0 mm 1 mps 707 mmHg 40%
    12:00 +39°C° 0 mm 1 mps 706 mmHg 36%
    13:00 +40°C° 0 mm 1 mps 706 mmHg 31%
    14:00 +35°C° 2.7 mm 1 mps 704 mmHg 49%
    15:00 +31°C° 2.7 mm 1 mps 703 mmHg 67%
    16:00 +27°C° 2.7 mm 1 mps 702 mmHg 85%
    17:00 +26°C° 5.7 mm 1 mps 702 mmHg 88%
    18:00 +25°C° 5.7 mm 1 mps 703 mmHg 91%
    19:00 +24°C° 5.7 mm 1 mps 704 mmHg 95%
    20:00 +24°C° 0 mm 1 mps 705 mmHg 95%
    21:00 +24°C° 0 mm 1 mps 705 mmHg 95%
    22:00 +22°C° 0 mm 0 mps 706 mmHg 95%
    23:00 +21°C° 0 mm 0 mps 706 mmHg 96%

    Day after tomorrow, 28 April, Sunday

    Time Temperature Precipitation Wind Pressure Humidity
    00:00 +21°C° 0 mm 0 mps 705 mmHg 96%
    01:00 +21°C° 0 mm 0 mps 705 mmHg 96%
    02:00 +20°C° 0 mm 0 mps 705 mmHg 96%
    03:00 +20°C° 0 mm 0 mps 704 mmHg 96%
    04:00 +20°C° 0 mm 0 mps 704 mmHg 96%
    05:00 +21°C° 0 mm 0 mps 704 mmHg 93%
    06:00 +21°C° 0 mm 0 mps 705 mmHg 90%
    07:00 +22°C° 0 mm 0 mps 706 mmHg 87%
    08:00 +25°C° 0 mm 0 mps 706 mmHg 74%
    09:00 +29°C° 0 mm 0 mps 707 mmHg 61%
    10:00 +34°C° 0 mm 1 mps 707 mmHg 48%
    11:00 +35°C° 0 mm 1 mps 707 mmHg 44%
    12:00 +36°C° 0 mm 1 mps 706 mmHg 40%
    13:00 +37°C° 0 mm 1 mps 706 mmHg 36%
    14:00 +36°C° 0 mm 1 mps 705 mmHg 41%
    15:00 +35°C° 0 mm 1 mps 704 mmHg 46%
    16:00 +34°C° 0 mm 1 mps 703 mmHg 51%
    17:00 +31°C° 3.4 mm 1 mps 703 mmHg 64%
    18:00 +28°C° 3.4 mm 1 mps 704 mmHg 78%
    19:00 +25°C° 3.4 mm 1 mps 704 mmHg 91%
    20:00 +25°C° 0.1 mm 1 mps 704 mmHg 92%
    21:00 +24°C° 0.1 mm 1 mps 705 mmHg 93%
    22:00 +24°C° 0.1 mm 1 mps 705 mmHg 94%
    23:00 +24°C° 0 mm 1 mps 705 mmHg 94%

    29 April, Monday

    Time Temperature Precipitation Wind Pressure Humidity
    00:00 +23°C° 0 mm 1 mps 704 mmHg 94%
    01:00 +21°C° 0 mm 0 mps 704 mmHg 94%
    02:00 +21°C° 0 mm 0 mps 704 mmHg 93%
    03:00 +21°C° 0 mm 0 mps 704 mmHg 93%
    04:00 +20°C° 0 mm 0 mps 703 mmHg 93%
    05:00 +21°C° 0 mm 0 mps 704 mmHg 90%
    06:00 +22°C° 0 mm 0 mps 704 mmHg 86%
    07:00 +23°C° 0 mm 0 mps 705 mmHg 83%
    08:00 +27°C° 0 mm 0 mps 706 mmHg 69%
    09:00 +32°C° 0 mm 1 mps 706 mmHg 54%
    10:00 +36°C° 0 mm 1 mps 707 mmHg 40%
    11:00 +37°C° 0 mm 1 mps 706 mmHg 37%
    12:00 +37°C° 0 mm 1 mps 705 mmHg 33%
    13:00 +39°C° 0 mm 1 mps 705 mmHg 29%
    14:00 +36°C° 0 mm 1 mps 704 mmHg 37%
    15:00 +34°C° 0 mm 1 mps 703 mmHg 45%
    16:00 +32°C° 0 mm 1 mps 702 mmHg 52%
    17:00 +30°C° 0.2 mm 1 mps 702 mmHg 61%
    18:00 +29°C° 0.2 mm 1 mps 702 mmHg 70%
    19:00 +27°C° 0.2 mm 1 mps 702 mmHg 79%
    20:00 +26°C° 0 mm 1 mps 703 mmHg 82%
    21:00 +26°C° 0 mm 1 mps 703 mmHg 84%
    22:00 +25°C° 0 mm 1 mps 704 mmHg 86%
    23:00 +23°C° 0 mm 0 mps 704 mmHg 87%

    30 April, Tuesday

    Time Temperature Precipitation Wind Pressure Humidity
    00:00 +23°C° 0 mm 0 mps 703 mmHg 87%
    01:00 +23°C° 0 mm 0 mps 703 mmHg 87%
    02:00 +22°C° 0 mm 0 mps 703 mmHg 87%
    03:00 +22°C° 0 mm 0 mps 702 mmHg 86%
    04:00 +24°C° 0 mm 1 mps 702 mmHg 86%
    05:00 +25°C° 0 mm 1 mps 703 mmHg 82%
    06:00 +25°C° 0 mm 1 mps 704 mmHg 79%
    07:00 +26°C° 0 mm 1 mps 704 mmHg 75%
    08:00 +30°C° 0 mm 1 mps 705 mmHg 62%
    09:00 +33°C° 0 mm 1 mps 705 mmHg 49%
    10:00 +37°C° 0 mm 1 mps 706 mmHg 35%
    11:00 +37°C° 0 mm 1 mps 705 mmHg 35%
    12:00 +37°C° 0 mm 1 mps 704 mmHg 35%
    13:00 +35°C° 0 mm 0 mps 703 mmHg 35%
    14:00 +33°C° 0 mm 0 mps 702 mmHg 40%
    15:00 +34°C° 0 mm 1 mps 702 mmHg 45%
    16:00 +32°C° 0 mm 1 mps 701 mmHg 50%
    17:00 +31°C° 0 mm 1 mps 701 mmHg 55%
    18:00 +29°C° 0 mm 1 mps 701 mmHg 61%
    19:00 +28°C° 0 mm 1 mps 702 mmHg 66%
    20:00 +27°C° 0 mm 1 mps 702 mmHg 69%
    21:00 +27°C° 0 mm 1 mps 703 mmHg 72%
    22:00 +24°C° 0 mm 0 mps 703 mmHg 75%
    23:00 +23°C° 0.2 mm 0 mps 703 mmHg 76%

    1 May, Wednesday

    Time Temperature Precipitation Wind Pressure Humidity
    00:00 +23°C° 0.2 mm 0 mps 703 mmHg 78%
    01:00 +23°C° 0.2 mm 0 mps 702 mmHg 80%
    02:00 +23°C° 0.2 mm 0 mps 702 mmHg 80%
    03:00 +22°C° 0.2 mm 0 mps 702 mmHg 81%
    04:00 +22°C° 0.2 mm 0 mps 702 mmHg 81%
    05:00 +23°C° 0 mm 0 mps 703 mmHg 79%
    06:00 +24°C° 0 mm 0 mps 703 mmHg 77%
    07:00 +25°C° 0 mm 0 mps 704 mmHg 75%
    08:00 +28°C° 0 mm 0 mps 704 mmHg 63%
    09:00 +31°C° 0 mm 0 mps 705 mmHg 51%
    10:00 +35°C° 0 mm 0 mps 705 mmHg 40%
    11:00 +33°C° 0 mm 0 mps 704 mmHg 44%
    12:00 +34°C° 0 mm 1 mps 703 mmHg 48%
    13:00 +32°C° 0 mm 1 mps 703 mmHg 53%
    14:00 +32°C° 0 mm 1 mps 702 mmHg 58%
    15:00 +31°C° 0 mm 1 mps 702 mmHg 63%
    16:00 +31°C° 0 mm 1 mps 702 mmHg 68%
    17:00 +30°C° 0.9 mm 1 mps 702 mmHg 74%
    18:00 +28°C° 0.9 mm 1 mps 702 mmHg 80%
    19:00 +27°C° 0.9 mm 1 mps 703 mmHg 87%
    20:00 +26°C° 0.9 mm 1 mps 703 mmHg 90%
    21:00 +26°C° 0.9 mm 1 mps 704 mmHg 93%
    22:00 +25°C° 0.9 mm 1 mps 704 mmHg 95%
    23:00 +25°C° 0.5 mm 1 mps 704 mmHg 96%
    Show more